This demonstration page uses our WeatherBlox Daily Observations layout. Learn more.

Left ArrowRight Arrow

Hourly Observations for July 21, 2021

Temp ( °F °C ) Dew Point ( °F °C ) Humidity (%) Winds ( mph kmh ) Pressure ( in mb ) Visibility ( mi km ) Precip ( " mm )
12:53 am 00:53 Clear 75 23.9 54 12.2 48 48 W 7 11 29.83 1010 10 16 0.00 0.00
1:53 am 01:53 Clear 73 22.8 55 12.8 53 53 SW 6 9 29.84 1010 10 16 0.00 0.00
2:53 am 02:53 Clear 73 22.8 56 13.3 55 55 SW 8 13 29.83 1010 10 16 0.00 0.00
3:53 am 03:53 Clear 73 22.8 56 13.3 55 55 SW 10 17 29.85 1011 10 16 0.00 0.00
4:53 am 04:53 Clear 70 21.1 56 13.3 61 61 SW 10 17 29.85 1011 10 16 0.00 0.00
5:53 am 05:53 Sunny 69 20.6 56 13.3 63 63 SW 7 11 29.86 1011 9 14 0.00 0.00
6:53 am 06:53 Sunny 69 20.6 57 13.9 66 66 W 8 13 29.87 1012 8 13 0.00 0.00
7:53 am 07:53 Sunny 73 22.8 58 14.4 59 59 W 5 7 29.88 1012 8 13 0.00 0.00
8:53 am 08:53 Sunny 77 25 54 12.2 45 45 W 10 17 29.89 1012 8 13 0.00 0.00
9:53 am 09:53 Sunny 78 25.6 51 10.6 39 39 WNW 9 15 29.90 1012 8 13 0.00 0.00
10:53 am 10:53 Sunny 81 27.2 53 11.7 38 38 W 7 11 29.89 1012 9 14 0.00 0.00
11:53 am 11:53 Sunny 82 27.8 53 11.7 37 37 NW 7 11 29.88 1012 10 16 0.00 0.00
12:53 pm 12:53 Sunny 86 30 51 10.6 30 30 VRB 3 6 29.86 1011 10 16 0.00 0.00
1:53 pm 13:53 Sunny 89 31.7 49 9.4 25 25 Calm 29.84 1011 10 16 0.00 0.00
2:53 pm 14:53 Sunny 90 32.2 48 8.9 24 24 VRB 3 6 29.82 1010 10 16 0.00 0.00
3:53 pm 15:53 Sunny 92 33.3 47 8.3 21 21 SW 6 9 29.80 1009 10 16 0.00 0.00
4:53 pm 16:53 Sunny 93 33.9 47 8.3 21 21 S 6 9 29.78 1008 10 16 0.00 0.00
5:53 pm 17:53 Sunny 93 33.9 47 8.3 21 21 SW 7 11 29.77 1008 10 16 0.00 0.00
6:53 pm 18:53 Sunny 93 33.9 48 8.9 21 21 NW 3 6 29.77 1008 10 16 0.00 0.00
7:53 pm 19:53 Sunny 88 31.1 46 7.8 23 23 NW 17 28 29.78 1009 9 14 0.00 0.00
8:53 pm 20:53 Sunny 85 29.4 44 6.7 24 24 N 3 6 29.79 1009 9 14 0.00 0.00
8:55 pm 20:55 Partly Cloudy with Thunderstorms 85 29.4 44 6.7 24 24 Calm 29.68 1005 9 14 0.00 0.00
9:33 pm 21:33 Cloudy with Thunderstorms 73 22.8 58 14.4 59 59 S 10 17 29.79 1009 7 11 0.01 0.25
9:41 pm 21:41 Cloudy with Nearby Thunderstorms 70 21.1 60 15.6 71 71 E 18 30 29.73 1007 6 10 0.02 0.51
9:53 pm 21:53 Mostly Cloudy with Light Rain 73 22.8 58 14.4 59 59 ENE 5 7 29.79 1009 10 16 0.03 0.76
10:53 pm 22:53 Clear 70 21.1 58 14.4 66 66 S 13 20 29.81 1009 10 16 0.00 0.00
11:53 pm 23:53 Clear 72 22.2 56 13.3 57 57 SSE 13 20 29.83 1010 10 16 0.00 0.00

Powered by AerisWeather